Location: Caltech
(34.1382°N, 118.1253°W)
Time: 17:48:54
(UTC-07:00)

Iridium 91 - Visible Passes

Search period start: 22 July 2017 00:00
Search period end: 01 August 2017 00:00
Orbit: 776 x 779 km, 86.4° (Epoch: 22 July)

Date Brightness Start Highest point End Pass type
(mag) Time Alt. Az. Time Alt. Az. Time Alt. Az.
22 Jul 6.2 22:37:54 41° ENE 22:37:54 41° ENE 22:41:57 10° NNE visible
23 Jul 7.8 00:18:21 16° WNW 00:18:21 16° WNW 00:21:12 10° NW visible
23 Jul 6.9 22:04:18 23° ENE 22:04:18 23° ENE 22:07:44 10° NNE visible
23 Jul 7.0 23:44:46 31° WNW 23:44:46 31° WNW 23:48:47 10° NNW visible
24 Jul 7.5 21:30:42 12° ENE 21:30:42 12° ENE 21:32:19 10° ENE visible
24 Jul 6.0 23:11:09 57° NW 23:11:09 57° NW 23:15:43 10° N visible
25 Jul 5.6 22:37:32 63° NE 22:37:32 63° NE 22:42:13 10° N visible
26 Jul 8.1 00:18:00 11° WNW 00:18:12 11° WNW 00:19:27 10° WNW visible
26 Jul 6.3 22:03:54 34° E 22:03:54 34° E 22:08:19 10° NNE visible
26 Jul 7.5 23:44:21 22° W 23:44:22 22° W 23:48:20 10° NNW visible
27 Jul 7.1 21:30:15 18° E 21:30:22 18° E 21:33:48 10° NE visible
27 Jul 6.5 23:10:43 41° W 23:10:43 41° W 23:15:36 10° NNW visible
28 Jul 5.4 22:37:03 81° W 22:37:06 81° W 22:42:20 10° N visible
29 Jul 5.7 22:03:22 51° E 22:03:38 52° E 22:08:41 10° NNE visible
29 Jul 7.9 23:43:48 14° W 23:44:38 14° WNW 23:47:26 10° NW visible
30 Jul 6.5 21:29:40 26° E 21:30:17 27° E 21:34:36 10° NNE visible
30 Jul 7.1 23:10:07 27° W 23:10:51 28° W 23:15:18 10° NNW visible
31 Jul 7.3 20:55:57 13° E 20:57:03 14° E 20:59:37 10° NE visible
31 Jul 6.0 22:36:24 48° WSW 22:37:12 54° W 22:42:19 10° N visible
